SCP
0 -0 -0 -0 -0 -0 -0 -0 0 0 0 -0 -0 -0 -0 -0 -0 -0 -0 -0 -0 -0 -0 -0 -0 -0 0 0 0 0 0 0 0 0 0 0 -0 -0 -0 -0 -0 -0 0
-0 -0 -0 -0 -0 -0 -0 -0 -0 -0 -0 -0 -0 -0 -0 -0 -0 -0 -0 -0 -0 -0 -0 -0 -0 -0 -0 -0 0 0 0 0 0 0 0 0 -0 -0 -0 -0 0 -0 0
-0 -0 -0 -0 -0 -0 -0 -0 -0 -0 -0 -0 -0 -0 -0 -0 -0 -0 -0 -0 -0 -0 -0 -0 -0 -0 -0 -0 -0 -0 0 0 0 0 0 0 0 0 0 0 0 0 -0
0 -0 -0 -0 -0 -0 -0 -0 -0 -0 -0 -0 -0 -0 -0 0 0 0 -0 -0 -0 0 0 0 0 -0 -0 -0 0 0 0 0 0 0 0 0 0 0 0 0 0 0 0
0 0 0 -0 -0 -0 -0 -0 -0 -0 -0 -0 -0 -0 0 0 0 0 0 0 0 0 0 0 0 0 0 0 0 0 0 0 0 0 0 0 0 0 0 0 0 0 0
0 0 0 0 0 0 -0 -0 0 0 0 -0 -0 0 0 0 0 0 0 0 0 0 0 0 0 0 0 0 0 0 0 0 0 0 0 0 0 0 0 0 0 0 0
0 0 0 0 0 0 0 0 0 0 0 0 0 0 0 0 0 0 0 0 0 0 0 0 0 0 0 0 0 0 0 0 0 0 0 0 0 0 0 0 0 0 0
0 0 0 0 0 0 0 0 0 0 0 0 0 0 0 0 0 0 0 0 0 0 0 0 0 0 0 0 0 0 0 0 0 0 0 0 0 0 0 0 0 0 0
0 0 0 0 0 0 0 0 0 0 0 0 0 0 0 0 0 0 0 0 0 0 0 0 0 0 0 0 0 0 0 0 0 0 0 0 0 0 0 0 0 0 0
0 0 0 0 0 0 0 0 0 0 0 0 0 0 0 0 0 0 0 0 0 0 0 0 0 0 0 0 0 0 0 0 0 0 0 0 0 0 0 0 0 0 0
0 0 0 0 0 0 0 0 0 0 0 0 0 0 0 0 0 0 0 0 0 0 0 0 0 0 0 0 0 0 0 0 0 0 0 0 0 0 0 0 0 0 0
0 0 0 0 0 0 0 0 0 0 0 0 0 0 0 0 0 0 0 0 0 0 0 0 0 0 0 0 0 0 0 0 0 0 0 0 0 0 0 0 0 0 0
0 0 0 0 0 0 0 0 0 0 0 0 0 0 0 0 0 0 0 0 0 0 0 0 0 0 0 0 0 0 0 0 0 0 0 0 0 0 0 0 0 0 0
0 0 0 0 0 0 0 0 0 0 0 0 0 0 0 0 0 0 0 0 0 0 0 0 0 0 0 0 0 0 0 0 0 0 0 0 0 0 0 0 0 0 0
0 0 0 0 0 0 0 0 0 0 0 0 0 0 0 0 0 0 0 0 0 0 0 0 0 0 0 0 0 0 0 0 0 0 0 0 0 0 0 0 0 0 0
0 0 0 0 0 0 0 0 0 0 0 0 0 0 0 0 0 0 0 0 0 0 0 0 0 0 0 -0 0 0 0 0 0 0 0 0 0 0 0 0 0 0 0
0 0 0 0 0 0 0 0 0 0 0 0 0 0 0 0 0 0 0 0 0 0 0 0 -0 0 0 0 -0 0 0 0 0 0 0 0 0 0 0 0 0 0 0
0 0 0 0 0 0 0 0 0 0 0 0 0 0 0 0 0 0 0 0 0 0 0 0 0 0 -0 -0 -0 -0 0 0 0 0 0 0 0 0 0 0 0 0 0
0 0 0 0 0 0 0 0 0 0 0 0 0 0 0 0 0 0 0 0 0 0 0 0 0 0 -0 -0 -0 0 0 0 0 0 0 0 0 0 0 0 0 0 0
0 0 0 0 0 0 0 0 0 0 0 0 0 0 0 0 0 0 0 0 0 0 0 0 0 0 -0 -0 -0 0 0 0 0 0 0 0 0 0 0 0 0 0 0
0 0 0 0 0 0 0 0 0 0 0 0 0 0 0 0 0 0 0 0 0 0 0 0 0 0 0 -0 -0 -0 0 0 0 0 0 0 0 0 0 0 0 0 0
0 0 0 0 0 0 0 0 0 0 0 0 0 0 0 0 0 0 0 0 0 0 0 0 0 0 0 -0 -0 -0 -0 -0 0 0 0 0 0 0 0 0 0 0 0
0 0 0 0 0 0 0 0 0 0 0 0 0 0 0 0 0 0 0 0 0 0 0 0 0 0 0 0 0 0 0 0 0 0 0 0 0 0 0 0 0 0 0
0 0 0 0 0 0 0 0 0 0 0 0 0 0 0 0 0 0 0 0 0 0 0 0 0 0 0 0 0 0 0 0 0 0 0 0 0 0 0 0 0 0 0
0 0 0 0 0 0 0 0 0 0 0 0 0 0 0 0 0 0 0 0 0 0 0 0 0 0 0 0 0 0 0 0 0 0 0 0 0 0 0 0 0 0 0
0 0 0 0 0 0 0 0 0 0 0 0 0 0 0 0 0 0 0 0 0 0 0 0 0 0 0 0 0 0 0 0 0 0 0 0 0 0 0 0 0 0 0
Wind_Speed_500mb
20 17 15 14 14 11 10 6 8 7 6 5 6 8 9 7 9 11 11 12 13 13 13 13 13 12 15 15 14 16 18 19 19 17 17 18 19 19 20 18 17 16 13
22 19 17 18 15 12 10 13 12 10 9 7 6 9 10 12 14 16 15 15 15 14 15 16 15 16 20 19 20 19 20 22 22 22 21 19 20 22 25 20 21 18 15
24 22 20 17 16 13 12 10 9 9 8 5 6 11 10 14 16 17 17 19 19 18 17 18 20 22 24 26 26 26 26 24 25 24 23 20 16 21 26 26 24 19 19
27 22 17 16 12 10 8 5 7 10 11 13 16 19 22 20 21 21 21 19 20 20 21 22 24 25 24 24 25 28 29 30 30 28 25 20 20 11 21 24 24 20 20
28 22 17 11 8 6 5 6 8 10 11 14 19 20 21 22 23 23 24 25 25 27 28 29 29 29 29 30 29 29 30 29 28 29 27 13 22 22 28 34 23 21 22
30 24 19 15 11 7 3 1 2 4 4 8 9 11 13 14 17 19 21 22 23 26 27 32 35 35 35 35 36 36 34 33 32 29 27 25 25 32 33 32 31 27 24
32 25 19 14 9 7 6 5 6 6 7 9 11 13 14 15 15 18 20 21 23 26 28 32 31 31 33 37 38 40 39 38 36 34 32 23 22 31 36 38 30 30 30
34 27 22 20 18 15 12 10 9 7 7 8 8 8 8 9 10 10 10 11 14 15 18 21 25 29 32 34 36 37 38 41 41 39 33 31 32 34 38 43 35 31 30
36 33 31 29 25 21 16 14 11 9 6 4 2 3 5 7 10 11 14 17 17 19 19 19 20 21 25 27 29 32 36 37 39 41 40 32 24 29 38 45 43 36 35
41 40 39 34 31 24 20 16 12 8 5 4 4 5 7 9 10 13 17 20 24 25 26 26 27 27 27 26 27 28 28 27 35 38 37 33 29 29 38 43 45 43 42
48 48 48 42 36 30 24 19 15 14 12 9 10 11 11 8 9 13 17 21 23 26 28 29 29 29 27 27 28 26 26 28 26 27 31 34 44 52 52 55 55 52 46
54 55 54 48 42 36 32 27 22 20 18 18 17 15 13 11 11 16 18 20 22 23 25 26 26 27 27 27 26 25 27 27 27 27 28 31 36 40 49 56 54 56 55
54 56 57 52 48 41 39 32 28 27 26 24 21 18 17 14 15 17 18 19 21 22 25 27 30 31 32 33 34 33 31 30 31 32 33 31 34 37 41 47 52 52 56
57 57 59 57 53 48 45 38 36 34 31 29 26 23 21 19 19 20 20 21 23 24 28 32 33 34 34 34 35 38 41 41 40 39 38 38 39 40 41 43 47 49 49
61 61 62 61 58 54 47 45 42 40 37 34 30 27 24 23 22 20 20 22 23 27 32 36 39 39 36 34 36 37 36 39 42 45 45 42 41 44 46 46 47 48 49
65 67 67 63 61 58 52 51 47 44 41 37 34 29 26 25 23 21 22 21 23 29 36 41 44 43 43 43 40 39 41 40 39 41 44 47 48 47 47 49 49 49 48
70 73 73 66 64 62 58 56 52 50 46 43 39 35 30 29 26 25 22 21 25 31 39 44 45 46 46 47 47 47 46 47 46 46 43 44 44 45 47 48 49 52 53
68 77 75 69 66 66 63 61 56 53 49 47 43 35 31 29 26 24 23 23 26 32 37 43 45 45 48 50 54 54 57 57 55 54 50 44 37 35 36 37 38 41 47
71 78 76 71 69 68 65 60 57 54 51 48 42 37 33 32 30 26 24 25 29 34 38 42 44 46 49 53 58 60 60 61 61 49 40 39 40 37 26 28 51 47 43
74 78 74 70 70 66 65 62 61 58 53 51 46 42 39 38 31 26 27 29 33 38 40 43 43 43 48 55 62 65 62 62 52 54 41 30 26 33 48 60 44 47 62
74 78 76 74 72 69 72 70 68 63 58 55 52 50 46 42 32 31 34 37 37 39 41 43 43 45 46 53 64 72 71 51 45 26 28 49 55 46 56 38 66 54 44
79 80 77 76 70 73 75 72 68 62 60 56 55 55 51 44 38 39 40 39 39 39 41 42 43 44 45 47 54 60 40 61 27 32 57 53 50 48 51 51 53 79 82
83 85 81 78 72 74 75 72 70 66 65 65 64 61 56 49 44 41 41 41 42 42 41 41 42 41 44 46 43 39 25 18 73 47 68 58 44 50 58 71 82 83 86
79 79 78 76 73 74 76 80 83 81 78 72 64 59 59 54 50 47 43 45 44 42 42 44 44 42 46 49 51 50 49 53 35 58 60 49 84 86 84 94 95 97 100
72 76 75 75 74 75 79 82 81 79 75 67 65 65 62 58 54 50 47 45 44 43 44 46 45 43 45 52 52 54 56 57 55 62 101 91 91 101 103 103 104 107 109
68 72 75 76 76 78 81 82 79 80 78 76 75 69 64 62 58 52 49 47 45 45 46 48 48 48 52 56 57 58 59 57 58 56 76 112 112 119 110 112 112 114 115
Wind_Direction_500mb
188 190 190 191 168 152 163 200 233 248 268 260 249 248 273 304 294 292 301 311 316 320 322 321 325 326 327 326 324 322 317 311 307 303 311 320 326 329 325 329 336 341 339
193 184 187 190 188 189 185 164 166 178 201 220 244 256 271 288 299 303 309 310 308 307 305 307 312 314 306 307 313 316 318 315 311 313 316 320 331 339 329 324 324 327 323
183 191 191 191 188 199 221 207 202 216 224 235 266 291 291 301 301 304 305 308 310 308 307 306 299 298 305 309 306 304 306 307 311 316 320 321 329 343 317 316 317 311 316
186 200 186 186 193 197 225 253 269 261 261 269 284 293 295 301 304 303 304 302 303 301 297 293 295 298 299 300 302 304 304 303 305 311 317 321 326 311 298 298 308 302 300
195 198 197 196 201 204 218 204 220 229 242 255 267 282 290 292 291 290 288 288 288 288 289 291 293 295 298 297 295 292 293 298 303 307 307 308 299 286 277 288 294 296 293
202 198 199 189 178 171 173 191 261 271 270 270 276 280 283 287 292 293 292 291 292 290 292 293 294 295 294 295 296 298 299 298 299 299 302 300 290 285 291 290 290 287 284
210 207 204 194 196 209 229 234 247 253 262 277 289 294 296 294 293 291 294 296 296 297 299 297 295 293 292 288 287 288 291 292 294 296 296 298 299 290 292 292 290 286 285
212 214 205 205 210 216 222 225 226 238 249 261 271 284 297 306 311 319 321 319 317 314 313 312 311 307 300 294 292 291 289 288 289 289 289 293 289 289 290 288 290 285 282
214 215 215 217 222 222 219 225 229 234 242 243 303 348 344 349 355 0 356 357 352 348 344 338 331 324 319 316 310 303 294 289 288 285 285 287 295 286 282 287 289 284 280
216 219 223 222 228 228 227 228 232 241 249 291 311 319 328 327 330 352 351 350 347 349 347 344 339 339 334 330 325 320 312 302 284 283 283 278 267 272 275 279 289 289 280
221 222 223 226 231 228 228 231 236 245 256 268 280 288 285 302 333 342 344 345 346 341 341 338 339 335 331 329 326 324 320 316 309 299 288 274 265 268 269 274 282 282 287
228 224 226 227 229 229 227 227 231 241 246 255 258 257 268 294 316 322 329 334 336 336 333 328 322 319 317 316 316 317 316 315 312 308 303 296 290 284 280 277 274 277 274
233 228 229 227 227 225 228 226 229 233 236 241 246 253 264 277 293 300 305 316 323 324 323 321 319 317 315 315 315 315 314 313 313 312 309 304 298 296 292 288 286 276 272
232 234 231 228 228 226 229 228 231 233 234 237 241 246 253 263 271 283 298 309 314 320 324 324 323 320 318 316 315 316 316 313 311 307 304 304 303 301 299 298 294 290 280
232 234 233 228 226 225 225 227 228 231 232 234 236 241 252 263 273 283 293 300 311 322 323 327 327 323 319 317 317 315 312 310 309 310 310 305 301 299 298 296 296 295 291
230 232 235 229 225 224 223 226 228 230 233 233 238 240 251 259 263 270 279 289 304 320 327 328 327 327 328 328 328 324 320 317 316 311 308 308 306 301 296 293 291 288 287
228 232 233 230 224 222 221 225 227 230 231 233 235 237 244 250 254 265 277 292 310 321 325 327 328 328 328 327 325 325 323 321 320 317 312 307 304 300 296 292 287 286 284
229 230 232 229 223 221 221 225 228 230 230 230 232 236 240 248 256 264 275 291 312 318 321 324 326 325 327 327 325 325 325 325 324 318 312 305 297 292 287 292 298 294 289
230 231 230 229 223 221 221 223 226 228 228 231 235 240 244 251 254 262 278 297 306 308 315 322 324 325 325 326 324 325 326 325 323 323 318 314 304 297 296 304 307 300 295
230 228 231 228 224 219 221 222 225 228 229 233 237 239 243 248 253 264 276 285 294 301 312 318 320 323 327 327 324 324 326 325 325 319 315 317 327 311 303 310 307 306 308
223 223 227 227 224 219 219 221 225 230 232 235 237 238 240 244 250 261 270 280 288 298 307 312 316 321 327 327 326 326 329 331 326 326 328 318 310 300 305 294 298 297 302
219 220 225 228 225 223 225 226 229 232 233 237 236 238 240 242 246 257 269 279 285 292 299 308 312 319 323 327 326 328 328 331 311 312 299 292 296 291 285 299 298 295 298
217 220 224 228 226 225 226 226 226 227 231 232 236 238 237 238 244 253 266 276 282 289 298 304 306 311 313 320 319 313 324 303 307 314 307 302 289 297 297 295 296 299 303
221 222 224 226 228 227 226 227 230 234 235 239 241 239 235 238 242 250 261 270 278 287 295 298 300 306 305 311 310 310 303 299 311 310 318 293 299 303 303 304 303 303 303
220 220 220 223 226 228 227 231 234 234 236 238 237 235 237 238 240 249 260 271 278 285 289 292 296 299 302 304 304 302 297 293 288 284 298 301 303 300 302 301 300 299 301
216 216 219 220 223 226 229 232 235 236 234 231 233 234 235 237 241 248 257 265 273 280 285 290 294 299 300 298 299 297 293 288 286 281 285 296 300 303 300 299 299 299 300
Wind_Speed_850mb
20 17 15 14 14 11 10 6 8 7 6 5 6 8 9 7 9 11 11 12 13 13 13 13 13 12 15 15 14 16 18 19 19 17 17 18 19 19 20 18 17 16 13
22 19 17 18 15 12 10 13 12 10 9 7 6 9 10 12 14 16 15 15 15 14 15 16 15 16 20 19 20 19 20 22 22 22 21 19 20 22 25 20 21 18 15
24 22 20 17 16 13 12 10 9 9 8 5 6 11 10 14 16 17 17 19 19 18 17 18 20 22 24 26 26 26 26 24 25 24 23 20 16 21 26 26 24 19 19
27 22 17 16 12 10 8 5 7 10 11 13 16 19 22 20 21 21 21 19 20 20 21 22 24 25 24 24 25 28 29 30 30 28 25 20 20 11 21 24 24 20 20
28 22 17 11 8 6 5 6 8 10 11 14 19 20 21 22 23 23 24 25 25 27 28 29 29 29 29 30 29 29 30 29 28 29 27 13 22 22 28 34 23 21 22
30 24 19 15 11 7 3 1 2 4 4 8 9 11 13 14 17 19 21 22 23 26 27 32 35 35 35 35 36 36 34 33 32 29 27 25 25 32 33 32 31 27 24
32 25 19 14 9 7 6 5 6 6 7 9 11 13 14 15 15 18 20 21 23 26 28 32 31 31 33 37 38 40 39 38 36 34 32 23 22 31 36 38 30 30 30
34 27 22 20 18 15 12 10 9 7 7 8 8 8 8 9 10 10 10 11 14 15 18 21 25 29 32 34 36 37 38 41 41 39 33 31 32 34 38 43 35 31 30
36 33 31 29 25 21 16 14 11 9 6 4 2 3 5 7 10 11 14 17 17 19 19 19 20 21 25 27 29 32 36 37 39 41 40 32 24 29 38 45 43 36 35
41 40 39 34 31 24 20 16 12 8 5 4 4 5 7 9 10 13 17 20 24 25 26 26 27 27 27 26 27 28 28 27 35 38 37 33 29 29 38 43 45 43 42
48 48 48 42 36 30 24 19 15 14 12 9 10 11 11 8 9 13 17 21 23 26 28 29 29 29 27 27 28 26 26 28 26 27 31 34 44 52 52 55 55 52 46
54 55 54 48 42 36 32 27 22 20 18 18 17 15 13 11 11 16 18 20 22 23 25 26 26 27 27 27 26 25 27 27 27 27 28 31 36 40 49 56 54 56 55
54 56 57 52 48 41 39 32 28 27 26 24 21 18 17 14 15 17 18 19 21 22 25 27 30 31 32 33 34 33 31 30 31 32 33 31 34 37 41 47 52 52 56
57 57 59 57 53 48 45 38 36 34 31 29 26 23 21 19 19 20 20 21 23 24 28 32 33 34 34 34 35 38 41 41 40 39 38 38 39 40 41 43 47 49 49
61 61 62 61 58 54 47 45 42 40 37 34 30 27 24 23 22 20 20 22 23 27 32 36 39 39 36 34 36 37 36 39 42 45 45 42 41 44 46 46 47 48 49
65 67 67 63 61 58 52 51 47 44 41 37 34 29 26 25 23 21 22 21 23 29 36 41 44 43 43 43 40 39 41 40 39 41 44 47 48 47 47 49 49 49 48
70 73 73 66 64 62 58 56 52 50 46 43 39 35 30 29 26 25 22 21 25 31 39 44 45 46 46 47 47 47 46 47 46 46 43 44 44 45 47 48 49 52 53
68 77 75 69 66 66 63 61 56 53 49 47 43 35 31 29 26 24 23 23 26 32 37 43 45 45 48 50 54 54 57 57 55 54 50 44 37 35 36 37 38 41 47
71 78 76 71 69 68 65 60 57 54 51 48 42 37 33 32 30 26 24 25 29 34 38 42 44 46 49 53 58 60 60 61 61 49 40 39 40 37 26 28 51 47 43
74 78 74 70 70 66 65 62 61 58 53 51 46 42 39 38 31 26 27 29 33 38 40 43 43 43 48 55 62 65 62 62 52 54 41 30 26 33 48 60 44 47 62
74 78 76 74 72 69 72 70 68 63 58 55 52 50 46 42 32 31 34 37 37 39 41 43 43 45 46 53 64 72 71 51 45 26 28 49 55 46 56 38 66 54 44
79 80 77 76 70 73 75 72 68 62 60 56 55 55 51 44 38 39 40 39 39 39 41 42 43 44 45 47 54 60 40 61 27 32 57 53 50 48 51 51 53 79 82
83 85 81 78 72 74 75 72 70 66 65 65 64 61 56 49 44 41 41 41 42 42 41 41 42 41 44 46 43 39 25 18 73 47 68 58 44 50 58 71 82 83 86
79 79 78 76 73 74 76 80 83 81 78 72 64 59 59 54 50 47 43 45 44 42 42 44 44 42 46 49 51 50 49 53 35 58 60 49 84 86 84 94 95 97 100
72 76 75 75 74 75 79 82 81 79 75 67 65 65 62 58 54 50 47 45 44 43 44 46 45 43 45 52 52 54 56 57 55 62 101 91 91 101 103 103 104 107 109
68 72 75 76 76 78 81 82 79 80 78 76 75 69 64 62 58 52 49 47 45 45 46 48 48 48 52 56 57 58 59 57 58 56 76 112 112 119 110 112 112 114 115
Wind_Direction_850mb
188 190 190 191 168 152 163 200 233 248 268 260 249 248 273 304 294 292 301 311 316 320 322 321 325 326 327 326 324 322 317 311 307 303 311 320 326 329 325 329 336 341 339
193 184 187 190 188 189 185 164 166 178 201 220 244 256 271 288 299 303 309 310 308 307 305 307 312 314 306 307 313 316 318 315 311 313 316 320 331 339 329 324 324 327 323
183 191 191 191 188 199 221 207 202 216 224 235 266 291 291 301 301 304 305 308 310 308 307 306 299 298 305 309 306 304 306 307 311 316 320 321 329 343 317 316 317 311 316
186 200 186 186 193 197 225 253 269 261 261 269 284 293 295 301 304 303 304 302 303 301 297 293 295 298 299 300 302 304 304 303 305 311 317 321 326 311 298 298 308 302 300
195 198 197 196 201 204 218 204 220 229 242 255 267 282 290 292 291 290 288 288 288 288 289 291 293 295 298 297 295 292 293 298 303 307 307 308 299 286 277 288 294 296 293
202 198 199 189 178 171 173 191 261 271 270 270 276 280 283 287 292 293 292 291 292 290 292 293 294 295 294 295 296 298 299 298 299 299 302 300 290 285 291 290 290 287 284
210 207 204 194 196 209 229 234 247 253 262 277 289 294 296 294 293 291 294 296 296 297 299 297 295 293 292 288 287 288 291 292 294 296 296 298 299 290 292 292 290 286 285
212 214 205 205 210 216 222 225 226 238 249 261 271 284 297 306 311 319 321 319 317 314 313 312 311 307 300 294 292 291 289 288 289 289 289 293 289 289 290 288 290 285 282
214 215 215 217 222 222 219 225 229 234 242 243 303 348 344 349 355 0 356 357 352 348 344 338 331 324 319 316 310 303 294 289 288 285 285 287 295 286 282 287 289 284 280
216 219 223 222 228 228 227 228 232 241 249 291 311 319 328 327 330 352 351 350 347 349 347 344 339 339 334 330 325 320 312 302 284 283 283 278 267 272 275 279 289 289 280
221 222 223 226 231 228 228 231 236 245 256 268 280 288 285 302 333 342 344 345 346 341 341 338 339 335 331 329 326 324 320 316 309 299 288 274 265 268 269 274 282 282 287
228 224 226 227 229 229 227 227 231 241 246 255 258 257 268 294 316 322 329 334 336 336 333 328 322 319 317 316 316 317 316 315 312 308 303 296 290 284 280 277 274 277 274
233 228 229 227 227 225 228 226 229 233 236 241 246 253 264 277 293 300 305 316 323 324 323 321 319 317 315 315 315 315 314 313 313 312 309 304 298 296 292 288 286 276 272
232 234 231 228 228 226 229 228 231 233 234 237 241 246 253 263 271 283 298 309 314 320 324 324 323 320 318 316 315 316 316 313 311 307 304 304 303 301 299 298 294 290 280
232 234 233 228 226 225 225 227 228 231 232 234 236 241 252 263 273 283 293 300 311 322 323 327 327 323 319 317 317 315 312 310 309 310 310 305 301 299 298 296 296 295 291
230 232 235 229 225 224 223 226 228 230 233 233 238 240 251 259 263 270 279 289 304 320 327 328 327 327 328 328 328 324 320 317 316 311 308 308 306 301 296 293 291 288 287
228 232 233 230 224 222 221 225 227 230 231 233 235 237 244 250 254 265 277 292 310 321 325 327 328 328 328 327 325 325 323 321 320 317 312 307 304 300 296 292 287 286 284
229 230 232 229 223 221 221 225 228 230 230 230 232 236 240 248 256 264 275 291 312 318 321 324 326 325 327 327 325 325 325 325 324 318 312 305 297 292 287 292 298 294 289
230 231 230 229 223 221 221 223 226 228 228 231 235 240 244 251 254 262 278 297 306 308 315 322 324 325 325 326 324 325 326 325 323 323 318 314 304 297 296 304 307 300 295
230 228 231 228 224 219 221 222 225 228 229 233 237 239 243 248 253 264 276 285 294 301 312 318 320 323 327 327 324 324 326 325 325 319 315 317 327 311 303 310 307 306 308
223 223 227 227 224 219 219 221 225 230 232 235 237 238 240 244 250 261 270 280 288 298 307 312 316 321 327 327 326 326 329 331 326 326 328 318 310 300 305 294 298 297 302
219 220 225 228 225 223 225 226 229 232 233 237 236 238 240 242 246 257 269 279 285 292 299 308 312 319 323 327 326 328 328 331 311 312 299 292 296 291 285 299 298 295 298
217 220 224 228 226 225 226 226 226 227 231 232 236 238 237 238 244 253 266 276 282 289 298 304 306 311 313 320 319 313 324 303 307 314 307 302 289 297 297 295 296 299 303
221 222 224 226 228 227 226 227 230 234 235 239 241 239 235 238 242 250 261 270 278 287 295 298 300 306 305 311 310 310 303 299 311 310 318 293 299 303 303 304 303 303 303
220 220 220 223 226 228 227 231 234 234 236 238 237 235 237 238 240 249 260 271 278 285 289 292 296 299 302 304 304 302 297 293 288 284 298 301 303 300 302 301 300 299 301
216 216 219 220 223 226 229 232 235 236 234 231 233 234 235 237 241 248 257 265 273 280 285 290 294 299 300 298 299 297 293 288 286 281 285 296 300 303 300 299 299 299 300